BAW18B TXKF-EGLL

Flight info

Callsign BAW18B
Flight time N/A
Altitude 37000
Route M083F370 SOMRR1 BALOO DCT 40N060W DCT JAROM/N0472F370 DCT SUPRY/M083F380 NATZ NASBA/M083F390 DCT GAPLI/N0480F390 DCT SIDDI DCT DAWLY DCT ELRIP DCT OTMET OTMET1H
Aircraft B77W/H-SDE1E3FGHIJ3J4J5J6M1M2P2RWXYZ/LB1D1

Departure

Time 2026-04-17 23:38
Airport L.F. Wade International Airport (TXKF)

Arrival

Time N/A
Airport London Heathrow Airport (EGLL)
Time Latitude Longitude Altitude Speed Heading
2026-04-17 23:24 32.36217 -64.70296 33 ft 0 kts 247°
2026-04-17 23:25 32.36217 -64.70295 33 ft 1 kts 247°
2026-04-17 23:25 32.36226 -64.70270 33 ft 4 kts 247°
2026-04-17 23:26 32.36236 -64.70240 30 ft 4 kts 247°
2026-04-17 23:26 32.36244 -64.70217 31 ft 3 kts 246°
2026-04-17 23:26 32.36259 -64.70195 30 ft 4 kts 197°
2026-04-17 23:26 32.36284 -64.70196 30 ft 4 kts 158°
2026-04-17 23:27 32.36308 -64.70209 30 ft 4 kts 154°
2026-04-17 23:27 32.36313 -64.70212 30 ft 3 kts 155°
2026-04-17 23:30 32.36303 -64.70207 30 ft 6 kts 155°
2026-04-17 23:30 32.36276 -64.70165 34 ft 7 kts 97°
2026-04-17 23:30 32.36281 -64.70128 33 ft 7 kts 75°
2026-04-17 23:30 32.36301 -64.70061 33 ft 13 kts 69°
2026-04-17 23:31 32.36358 -64.69900 33 ft 26 kts 66°
2026-04-17 23:31 32.36428 -64.69707 33 ft 26 kts 67°
2026-04-17 23:31 32.36497 -64.69514 32 ft 24 kts 67°
2026-04-17 23:31 32.36561 -64.69330 30 ft 24 kts 68°
2026-04-17 23:32 32.36624 -64.69148 26 ft 24 kts 68°
2026-04-17 23:32 32.36686 -64.68976 30 ft 20 kts 67°
2026-04-17 23:32 32.36711 -64.68835 32 ft 17 kts 99°
2026-04-17 23:32 32.36690 -64.68698 32 ft 17 kts 101°
2026-04-17 23:33 32.36666 -64.68561 32 ft 17 kts 102°
2026-04-17 23:33 32.36642 -64.68425 32 ft 17 kts 102°
2026-04-17 23:33 32.36615 -64.68271 32 ft 23 kts 101°
2026-04-17 23:33 32.36578 -64.68054 32 ft 28 kts 101°
2026-04-17 23:34 32.36539 -64.67828 32 ft 28 kts 102°
2026-04-17 23:34 32.36499 -64.67600 31 ft 28 kts 101°
2026-04-17 23:34 32.36461 -64.67372 32 ft 28 kts 101°
2026-04-17 23:34 32.36422 -64.67144 32 ft 28 kts 102°
2026-04-17 23:35 32.36381 -64.66916 32 ft 28 kts 102°
2026-04-17 23:35 32.36343 -64.66688 33 ft 28 kts 101°
2026-04-17 23:35 32.36314 -64.66515 33 ft 20 kts 105°
2026-04-17 23:35 32.36275 -64.66388 32 ft 9 kts 113°
2026-04-17 23:36 32.36246 -64.66340 32 ft 7 kts 144°
2026-04-17 23:36 32.36199 -64.66334 30 ft 8 kts 189°
2026-04-17 23:36 32.36156 -64.66375 28 ft 9 kts 253°
2026-04-17 23:36 32.36162 -64.66458 28 ft 18 kts 279°
2026-04-17 23:37 32.36207 -64.66727 29 ft 49 kts 281°
2026-04-17 23:37 32.36323 -64.67398 25 ft 120 kts 282°
2026-04-17 23:37 32.36521 -64.68611 34 ft 177 kts 279°
2026-04-17 23:37 32.36764 -64.70070 464 ft 183 kts 280°
2026-04-17 23:38 32.37048 -64.71558 1060 ft 190 kts 279°
2026-04-17 23:38 32.37318 -64.73101 1726 ft 192 kts 278°
2026-04-17 23:38 32.37586 -64.74749 2000 ft 219 kts 279°
2026-04-17 23:38 32.37905 -64.76616 2279 ft 243 kts 279°
2026-04-17 23:39 32.38429 -64.78540 2851 ft 253 kts 301°
2026-04-17 23:39 32.39740 -64.79964 3574 ft 264 kts 332°
2026-04-17 23:39 32.41557 -64.80367 4340 ft 272 kts
2026-04-17 23:39 32.43436 -64.79957 5012 ft 278 kts 10°
2026-04-17 23:40 32.45349 -64.79485 5788 ft 281 kts
2026-04-17 23:40 32.47246 -64.79030 6599 ft 283 kts
2026-04-17 23:40 32.49186 -64.78575 7358 ft 285 kts
2026-04-17 23:40 32.51146 -64.78120 8086 ft 289 kts
2026-04-17 23:41 32.53080 -64.77457 8703 ft 295 kts 28°
2026-04-17 23:41 32.54627 -64.75836 9319 ft 300 kts 49°
2026-04-17 23:41 32.55980 -64.73905 9964 ft 306 kts 49°
2026-04-17 23:41 32.57353 -64.71958 10618 ft 312 kts 48°
2026-04-17 23:42 32.58798 -64.69918 10858 ft 336 kts 48°
2026-04-17 23:42 32.60359 -64.67718 11049 ft 361 kts 49°
2026-04-17 23:42 32.62008 -64.65396 11308 ft 382 kts 49°
2026-04-17 23:42 32.63750 -64.62946 11958 ft 393 kts 49°
2026-04-17 23:43 32.65528 -64.60446 12747 ft 400 kts 49°
2026-04-17 23:43 32.67334 -64.57907 13662 ft 404 kts 49°
2026-04-17 23:43 32.69155 -64.55350 14510 ft 408 kts 49°
2026-04-17 23:43 32.70997 -64.52760 15332 ft 412 kts 49°
2026-04-17 23:44 32.72864 -64.50145 16165 ft 416 kts 48°
2026-04-17 23:44 32.74767 -64.47529 16975 ft 421 kts 48°
2026-04-17 23:44 32.76702 -64.44894 17799 ft 425 kts 47°
2026-04-17 23:44 32.78641 -64.42257 18534 ft 431 kts 47°
2026-04-17 23:45 32.82624 -64.36822 19891 ft 440 kts 48°
2026-04-17 23:45 32.84642 -64.34059 20595 ft 443 kts 48°
2026-04-17 23:45 32.86673 -64.31274 21289 ft 447 kts 48°
2026-04-17 23:46 32.88726 -64.28454 21936 ft 452 kts 48°
2026-04-17 23:46 32.90798 -64.25607 22563 ft 457 kts 48°
2026-04-17 23:46 32.92888 -64.22732 23186 ft 461 kts 48°
2026-04-17 23:46 32.94999 -64.19826 23801 ft 466 kts 48°
2026-04-17 23:47 32.97128 -64.16894 24304 ft 470 kts 49°
2026-04-17 23:47 32.99273 -64.13937 24823 ft 474 kts 48°
2026-04-17 23:47 33.01407 -64.10994 25348 ft 477 kts 48°
2026-04-17 23:47 33.03586 -64.07986 25848 ft 481 kts 48°
2026-04-17 23:48 33.05780 -64.04956 26363 ft 484 kts 48°
2026-04-17 23:48 33.07983 -64.01910 26938 ft 486 kts 48°
2026-04-17 23:48 33.10195 -63.98849 27464 ft 488 kts 48°
2026-04-17 23:48 33.12421 -63.95765 27920 ft 492 kts 48°
2026-04-17 23:49 33.14665 -63.92654 28355 ft 496 kts 48°
2026-04-17 23:49 33.16923 -63.89520 28800 ft 500 kts 48°
2026-04-17 23:49 33.19195 -63.86365 29220 ft 503 kts 48°
2026-04-17 23:49 33.21481 -63.83186 29639 ft 506 kts 48°
2026-04-17 23:50 33.23779 -63.79988 30025 ft 509 kts 48°
2026-04-17 23:50 33.26083 -63.76778 30437 ft 509 kts 48°
2026-04-17 23:50 33.28387 -63.73567 30910 ft 508 kts 49°
2026-04-17 23:50 33.30677 -63.70370 31446 ft 505 kts 49°
2026-04-17 23:51 33.32957 -63.67186 31862 ft 505 kts 48°
2026-04-17 23:51 33.35223 -63.64020 32167 ft 508 kts 48°
2026-04-17 23:51 33.37522 -63.60804 32533 ft 508 kts 48°
2026-04-17 23:51 33.39818 -63.57588 32951 ft 507 kts 48°
2026-04-17 23:52 33.42111 -63.54376 33373 ft 507 kts 48°
2026-04-17 23:52 33.44401 -63.51163 33749 ft 507 kts 48°
2026-04-17 23:52 33.46691 -63.47949 34110 ft 507 kts 48°
2026-04-17 23:52 33.48977 -63.44735 34439 ft 507 kts 48°
2026-04-17 23:53 33.51258 -63.41527 34786 ft 506 kts 48°
2026-04-17 23:53 33.53538 -63.38318 35106 ft 505 kts 48°
2026-04-17 23:53 33.55813 -63.35112 35425 ft 504 kts 48°
2026-04-17 23:53 33.58085 -63.31908 35740 ft 504 kts 48°
2026-04-17 23:54 33.60353 -63.28708 36050 ft 503 kts 48°
2026-04-17 23:54 33.62619 -63.25507 36358 ft 502 kts 48°
2026-04-17 23:54 33.64851 -63.22350 36647 ft 502 kts 48°
2026-04-17 23:54 33.67107 -63.19159 36928 ft 501 kts 48°
2026-04-17 23:55 33.69366 -63.15958 37112 ft 503 kts 48°
2026-04-17 23:55 33.73914 -63.09510 37174 ft 506 kts 49°
2026-04-17 23:56 33.78433 -63.03086 37161 ft 499 kts 49°
2026-04-17 23:56 33.82901 -62.96725 37174 ft 497 kts 49°
2026-04-17 23:57 33.87367 -62.90358 37182 ft 497 kts 49°
2026-04-17 23:57 33.91831 -62.83983 37179 ft 498 kts 49°
2026-04-17 23:58 33.96274 -62.77624 37179 ft 499 kts 49°
2026-04-17 23:58 34.00749 -62.71209 37177 ft 501 kts 49°
2026-04-17 23:59 34.05231 -62.64772 37175 ft 502 kts 49°
2026-04-17 23:59 34.09720 -62.58312 37175 ft 503 kts 49°
2026-04-18 00:00 34.14214 -62.51835 37169 ft 504 kts 49°
2026-04-18 00:00 34.18706 -62.45347 37176 ft 503 kts 49°
2026-04-18 00:01 34.23193 -62.38856 37183 ft 504 kts 49°
2026-04-18 00:01 34.27689 -62.32339 37172 ft 504 kts 49°
2026-04-18 00:02 34.32173 -62.25826 37170 ft 504 kts 49°
2026-04-18 00:02 34.36650 -62.19314 37173 ft 503 kts 49°
2026-04-18 00:03 34.41610 -62.13503 37189 ft 493 kts 27°
2026-04-18 00:03 34.44745 -62.11915 37169 ft 484 kts 11°
2026-04-18 00:03 34.47972 -62.10912 37201 ft 487 kts 12°
2026-04-18 00:04 34.54581 -62.08713 37182 ft 496 kts 13°
2026-04-18 00:04 34.61238 -62.06367 37180 ft 499 kts 13°
2026-04-18 00:05 34.67910 -62.03976 37168 ft 499 kts 13°
2026-04-18 00:05 34.74565 -62.01591 37168 ft 498 kts 13°
2026-04-18 00:06 34.81214 -61.99211 37169 ft 496 kts 13°
2026-04-18 00:06 34.87830 -61.96843 37166 ft 495 kts 13°
2026-04-18 00:07 34.94425 -61.94480 37163 ft 493 kts 13°
2026-04-18 00:07 35.00961 -61.92133 37164 ft 493 kts 13°
2026-04-18 00:08 35.07531 -61.89769 37163 ft 492 kts 13°
2026-04-18 00:08 35.14093 -61.87405 37165 ft 491 kts 13°
2026-04-18 00:09 35.20658 -61.85035 37177 ft 492 kts 13°
2026-04-18 00:09 35.27228 -61.82660 37167 ft 493 kts 13°
2026-04-18 00:10 35.33770 -61.80291 37159 ft 494 kts 13°
2026-04-18 00:10 35.40364 -61.77899 37160 ft 494 kts 13°
2026-04-18 00:11 35.46971 -61.75498 37160 ft 496 kts 13°
2026-04-18 00:11 35.53604 -61.73083 37158 ft 496 kts 13°
2026-04-18 00:12 35.60190 -61.70681 37155 ft 497 kts 13°
2026-04-18 00:12 35.66830 -61.68256 37160 ft 498 kts 13°
2026-04-18 00:13 35.73473 -61.65825 37153 ft 498 kts 13°
2026-04-18 00:13 35.80122 -61.63387 37146 ft 498 kts 13°
2026-04-18 00:14 35.86772 -61.60945 37148 ft 499 kts 13°
2026-04-18 00:14 35.93422 -61.58499 37145 ft 499 kts 13°
2026-04-18 00:15 36.00074 -61.56047 37146 ft 499 kts 13°
2026-04-18 00:15 36.06735 -61.53588 37145 ft 499 kts 13°
2026-04-18 00:16 36.13394 -61.51126 37144 ft 500 kts 13°
2026-04-18 00:16 36.18934 -61.49074 37141 ft 500 kts 13°
2026-04-18 00:17 36.25594 -61.46603 37141 ft 500 kts 13°
2026-04-18 00:17 36.32259 -61.44126 37138 ft 500 kts 13°
2026-04-18 00:18 36.38924 -61.41644 37140 ft 500 kts 13°
2026-04-18 00:18 36.45594 -61.39156 37138 ft 501 kts 13°
2026-04-18 00:19 36.52231 -61.36676 37131 ft 501 kts 13°
2026-04-18 00:19 36.58907 -61.34177 37129 ft 501 kts 13°
2026-04-18 00:20 36.65589 -61.31670 37129 ft 501 kts 13°
2026-04-18 00:20 36.72268 -61.29161 37127 ft 501 kts 13°
2026-04-18 00:21 36.78940 -61.26650 37128 ft 501 kts 13°
2026-04-18 00:21 36.85611 -61.24135 37127 ft 501 kts 12°
2026-04-18 00:22 36.92286 -61.21613 37125 ft 501 kts 12°
2026-04-18 00:22 36.98919 -61.19103 37120 ft 501 kts 13°
2026-04-18 00:23 37.05597 -61.16571 37118 ft 501 kts 13°
2026-04-18 00:23 37.12265 -61.14038 37117 ft 501 kts 13°
2026-04-18 00:24 37.18941 -61.11497 37131 ft 501 kts 13°
2026-04-18 00:24 37.25616 -61.08952 37127 ft 502 kts 12°
2026-04-18 00:25 37.32299 -61.06400 37115 ft 502 kts 12°
2026-04-18 00:25 37.38951 -61.03854 37112 ft 502 kts 12°
2026-04-18 00:26 37.45632 -61.01293 37113 ft 502 kts 12°
2026-04-18 00:26 37.52321 -60.98724 37109 ft 502 kts 12°
2026-04-18 00:27 37.59003 -60.96152 37123 ft 502 kts 12°
2026-04-18 00:27 37.65693 -60.93573 37104 ft 502 kts 12°
2026-04-18 00:28 37.72380 -60.90990 37104 ft 502 kts 12°
2026-04-18 00:28 37.79068 -60.88402 37118 ft 503 kts 12°
2026-04-18 00:29 37.85763 -60.85806 37105 ft 503 kts 12°
2026-04-18 00:29 37.92426 -60.83217 37101 ft 503 kts 12°
2026-04-18 00:30 37.99127 -60.80609 37106 ft 504 kts 12°
2026-04-18 00:30 38.05832 -60.77994 37093 ft 504 kts 12°
2026-04-18 00:31 38.12543 -60.75372 37092 ft 505 kts 12°
2026-04-18 00:31 38.19256 -60.72744 37095 ft 505 kts 12°
2026-04-18 00:32 38.25971 -60.70110 37088 ft 505 kts 12°
2026-04-18 00:32 38.32685 -60.67472 37095 ft 505 kts 12°
2026-04-18 00:33 38.39396 -60.64829 37087 ft 505 kts 12°
2026-04-18 00:33 38.46107 -60.62182 37083 ft 505 kts 12°
2026-04-18 00:34 38.52813 -60.59531 37102 ft 505 kts 12°
2026-04-18 00:34 38.59524 -60.56873 37089 ft 505 kts 12°
2026-04-18 00:35 38.66230 -60.54212 37073 ft 505 kts 12°
2026-04-18 00:35 38.72945 -60.51542 37089 ft 505 kts 12°
2026-04-18 00:36 38.79661 -60.48867 37077 ft 505 kts 12°
2026-04-18 00:36 38.86378 -60.46186 37073 ft 506 kts 12°
2026-04-18 00:37 38.93092 -60.43500 37081 ft 505 kts 12°
2026-04-18 00:37 38.99803 -60.40810 37073 ft 505 kts 12°
2026-04-18 00:38 39.06515 -60.38114 37090 ft 505 kts 12°
2026-04-18 00:38 39.13221 -60.35416 37067 ft 505 kts 12°
2026-04-18 00:39 39.19885 -60.32730 37071 ft 505 kts 12°
2026-04-18 00:39 39.26588 -60.30022 37076 ft 505 kts 12°
2026-04-18 00:40 39.33303 -60.27304 37069 ft 506 kts 12°
2026-04-18 00:40 39.40027 -60.24577 37068 ft 506 kts 12°
2026-04-18 00:41 39.46761 -60.21840 37072 ft 507 kts 12°
2026-04-18 00:41 39.53501 -60.19095 37062 ft 508 kts 12°
2026-04-18 00:42 39.60252 -60.16340 37078 ft 509 kts 12°
2026-04-18 00:42 39.67007 -60.13577 37055 ft 509 kts 12°
2026-04-18 00:43 39.73725 -60.10823 37060 ft 509 kts 12°
2026-04-18 00:43 39.80484 -60.08048 37065 ft 509 kts 12°
2026-04-18 00:44 39.87240 -60.05268 37059 ft 509 kts 12°
2026-04-18 00:44 39.94001 -60.02480 37057 ft 509 kts 12°
2026-04-18 00:45 40.00529 -59.98682 37062 ft 520 kts 26°
2026-04-18 00:45 40.06416 -59.93078 37062 ft 527 kts 37°
2026-04-18 00:46 40.11930 -59.86766 37053 ft 528 kts 38°
2026-04-18 00:46 40.17432 -59.80427 37051 ft 527 kts 37°
2026-04-18 00:47 40.22961 -59.74128 37051 ft 527 kts 37°
2026-04-18 00:47 40.28472 -59.67888 37052 ft 527 kts 37°
2026-04-18 00:48 40.34019 -59.61601 37050 ft 527 kts 37°
2026-04-18 00:48 40.39563 -59.55298 37065 ft 527 kts 37°
2026-04-18 00:49 40.47873 -59.45817 37045 ft 527 kts 37°
2026-04-18 00:49 40.53400 -59.39491 37045 ft 527 kts 37°
2026-04-18 00:50 40.58925 -59.33155 37049 ft 527 kts 37°
2026-04-18 00:50 40.64418 -59.26840 37055 ft 526 kts 37°
2026-04-18 00:51 40.69928 -59.20492 37058 ft 526 kts 37°
2026-04-18 00:51 40.75441 -59.14127 37049 ft 527 kts 37°
2026-04-18 00:52 40.80954 -59.07745 37046 ft 527 kts 37°
2026-04-18 00:52 40.86428 -59.01395 37055 ft 527 kts 37°
2026-04-18 00:53 40.91932 -58.94996 37048 ft 527 kts 37°
2026-04-18 00:53 40.97439 -58.88577 37065 ft 527 kts 37°
2026-04-18 00:54 41.02941 -58.82151 37041 ft 528 kts 37°
2026-04-18 00:54 41.08441 -58.75712 37058 ft 527 kts 37°
2026-04-18 00:55 41.13948 -58.69248 37053 ft 528 kts 37°
2026-04-18 00:55 41.19442 -58.62786 37051 ft 528 kts 37°
2026-04-18 00:56 41.24937 -58.56307 37075 ft 528 kts 37°
2026-04-18 00:56 41.30432 -58.49813 37058 ft 528 kts 37°
2026-04-18 00:57 41.35886 -58.43352 37058 ft 528 kts 37°
2026-04-18 00:57 41.41382 -58.36827 37060 ft 528 kts 37°
2026-04-18 00:58 41.46865 -58.30301 37057 ft 528 kts 37°
2026-04-18 00:58 41.52342 -58.23766 37057 ft 528 kts 37°
2026-04-18 00:59 41.57813 -58.17224 37063 ft 528 kts 37°
2026-04-18 00:59 41.63285 -58.10665 37055 ft 528 kts 37°
2026-04-18 01:00 41.68752 -58.04097 37077 ft 528 kts 37°
2026-04-18 01:00 41.74215 -57.97517 37061 ft 528 kts 37°
2026-04-18 01:01 41.79644 -57.90963 37066 ft 528 kts 37°
2026-04-18 01:01 41.85103 -57.84357 37065 ft 529 kts 37°
2026-04-18 01:02 41.90565 -57.77731 37047 ft 529 kts 37°
2026-04-18 01:02 41.96025 -57.71092 37048 ft 530 kts 37°
2026-04-18 01:03 42.01482 -57.64440 37069 ft 530 kts 37°
2026-04-18 01:03 42.06013 -57.58905 37047 ft 530 kts 37°
2026-04-18 01:04 42.11471 -57.52222 37076 ft 530 kts 37°
2026-04-18 01:04 42.16920 -57.45534 37055 ft 530 kts 37°
2026-04-18 01:05 42.22374 -57.38825 37057 ft 530 kts 37°
2026-04-18 01:05 42.27817 -57.32111 37065 ft 530 kts 37°
2026-04-18 01:06 42.33266 -57.25375 37056 ft 530 kts 37°
2026-04-18 01:06 42.38676 -57.18669 37054 ft 531 kts 37°
2026-04-18 01:07 42.44124 -57.11899 37069 ft 531 kts 37°
2026-04-18 01:07 42.49562 -57.05127 37056 ft 531 kts 37°
2026-04-18 01:08 42.54996 -56.98342 37054 ft 531 kts 37°
2026-04-18 01:08 42.60396 -56.91583 37051 ft 531 kts 37°
2026-04-18 01:09 42.65827 -56.84768 37058 ft 531 kts 37°
2026-04-18 01:09 42.71256 -56.77938 37078 ft 531 kts 37°
2026-04-18 01:10 42.76682 -56.71096 37058 ft 532 kts 37°
2026-04-18 01:10 42.82102 -56.64244 37054 ft 532 kts 37°
2026-04-18 01:11 42.87527 -56.57370 37082 ft 533 kts 37°
2026-04-18 01:11 42.92955 -56.50473 37056 ft 533 kts 37°
2026-04-18 01:12 42.98379 -56.43562 37050 ft 533 kts 37°
2026-04-18 01:12 43.03766 -56.36682 37056 ft 534 kts 37°
2026-04-18 01:13 43.09190 -56.29738 37046 ft 534 kts 37°
2026-04-18 01:13 43.14613 -56.22778 37046 ft 534 kts 37°
2026-04-18 01:14 43.20036 -56.15798 37036 ft 535 kts 37°
2026-04-18 01:14 43.25458 -56.08803 37054 ft 534 kts 37°
2026-04-18 01:15 43.30867 -56.01807 37055 ft 534 kts 37°
2026-04-18 01:15 43.36233 -55.94847 37038 ft 534 kts 37°
2026-04-18 01:16 43.41627 -55.87834 37036 ft 532 kts 37°
2026-04-18 01:16 43.47002 -55.80828 37027 ft 532 kts 37°
2026-04-18 01:17 43.52363 -55.73822 37025 ft 531 kts 37°
2026-04-18 01:17 43.57721 -55.66803 37026 ft 530 kts 37°
2026-04-18 01:18 43.63066 -55.59782 37046 ft 530 kts 37°
2026-04-18 01:18 43.68370 -55.52797 37029 ft 530 kts 37°
2026-04-18 01:19 43.73701 -55.45758 37019 ft 530 kts 37°
2026-04-18 01:19 43.79033 -55.38701 37023 ft 531 kts 37°
2026-04-18 01:20 43.84368 -55.31620 37022 ft 531 kts 37°
2026-04-18 01:20 43.89698 -55.24526 37020 ft 531 kts 37°
2026-04-18 01:21 43.95026 -55.17417 37006 ft 532 kts 37°
2026-04-18 01:21 44.00356 -55.10287 37001 ft 532 kts 37°
2026-04-18 01:22 44.05656 -55.03177 37018 ft 532 kts 37°
2026-04-18 01:22 44.10982 -54.96014 37005 ft 532 kts 37°
2026-04-18 01:23 44.16231 -54.88721 37000 ft 536 kts 42°
2026-04-18 01:23 44.20742 -54.80330 37006 ft 542 kts 51°
2026-04-18 01:24 44.24905 -54.71539 37001 ft 543 kts 51°
2026-04-18 01:24 44.29061 -54.62761 36958 ft 542 kts 51°
2026-04-18 01:25 44.33244 -54.54023 36989 ft 541 kts 51°
2026-04-18 01:25 44.37436 -54.45295 36988 ft 541 kts 51°
2026-04-18 01:26 44.41594 -54.36611 36983 ft 541 kts 51°
2026-04-18 01:26 44.45769 -54.27856 36984 ft 541 kts 51°
2026-04-18 01:27 44.49939 -54.19080 36980 ft 541 kts 51°